Location: Unspecified
(42.4735°N, 0.0000°E)
Time: 20:37:57
(UTC+00:00)

Meteor 2-5 Rocket - Visible Passes

Search period start: 04 April 2026 00:00
Search period end: 14 April 2026 00:00
Orbit: 832 x 910 km, 81.2° (Epoch: 29 March)

Date Brightness Start Highest point End Pass type
(mag) Time Alt. Az. Time Alt. Az. Time Alt. Az.
4 Apr 5.5 18:55:30 10° NE 18:57:47 12° ENE 19:00:04 10° E visible
4 Apr 3.6 20:36:25 10° N 20:41:59 89° W 20:43:40 47° S visible
4 Apr 6.3 22:23:11 10° WNW 22:24:25 11° W 22:25:39 10° W visible
5 Apr 3.6 20:30:31 10° N 20:36:04 86° W 20:38:25 36° S visible
5 Apr 6.4 22:17:47 10° WNW 22:18:29 10° W 22:19:10 10° W visible
6 Apr 3.7 20:24:36 10° NNW 20:30:09 84° W 20:33:13 28° S visible
7 Apr 3.7 20:18:42 10° NNW 20:24:15 81° W 20:28:04 21° S visible
8 Apr 3.8 20:12:48 10° NNW 20:18:20 78° W 20:23:00 15° S visible
9 Apr 3.8 20:06:54 10° NNW 20:12:25 75° W 20:17:57 10° S visible
10 Apr 3.9 20:00:59 10° NNW 20:06:31 72° W 20:12:02 10° S visible
11 Apr 4.0 19:55:05 10° NNW 20:00:36 70° W 20:06:07 10° S visible
12 Apr 4.1 19:49:11 10° NNW 19:54:41 67° W 20:00:12 10° S visible
13 Apr 4.1 19:43:18 10° NNW 19:48:46 65° W 19:54:16 10° S visible
